Regional Weather Roundup
Issued by NWS Sterling, VA

Home | Current Version | Previous Version | Text Only | Print | Product List | Glossary Off
Versions: 1 2 3 4 5 6 7 8 9 10 11 12 13 14 15 16 17 18 19 20 21 22 23 24 25 26 27 28 29 30 31 32 33 34 35 36 37 38 39 40 41 42 43 44 45 46 47 48 49 50

000
ASUS41 KLWX 272310
RWRLWX

REGIONAL WEATHER ROUNDUP
NATIONAL WEATHER SERVICE BALTIMORE MD/WASHINGTON DC
700 PM EDT FRI MAR 27 2015

Note: "FAIR" indicates few or no clouds below 12,000 feet
with no significant weather and/or obstructions to visibility.
 TC=TEMPERATURE CELSIUS

 * =Non NWS site. Station does not report precipitation (e.g. rain,
    snow, etc.), thunder, or fog.

DCZ001-MDZ009-015-VAZ040>042-051-053>054-280000-
WASHINGTON METRO

CITY           SKY/WX    TMP DP  RH WIND       PRES   REMARKS
WASHINGTON NAT MOCLDY    50  26  39 NW12      29.78R
DULLES         MOCLDY    46  26  45 NW7       29.78R
ANDREWS AFB    MOCLDY    46  29  51 N13       29.76R
FT BELVOIR     MOCLDY    48  26  42 N8        29.78R
QUANTICO       MOCLDY    49  27  42 N8        29.80R
COLLEGE PARK*  MOCLDY    48  27  43 N8        29.77R
LEESBURG*      CLOUDY    46  30  53 N13       29.80R
MANASSAS*      PTCLDY    46  28  49 N12       29.80R
GAITHERSBURG*  MOCLDY    45  27  49 N5        29.81R

$$

MDZ006>007-011-014-280000-
BALTIMORE METRO

CITY           SKY/WX    TMP DP  RH WIND       PRES   REMARKS
BWI AIRPORT    PTCLDY    47  25  42 NW8       29.76R
MD SCIENCE CTR   N/A     49  24  37 MISG      29.77R
MARTIN STATE   MOCLDY    48  28  46 NW6       29.78S
ANNAPOLIS      MOCLDY    43  33  68 SE5       29.78R

$$

MDZ012-015-019>023-280000-
MARYLAND EASTERN SHORE

CITY           SKY/WX    TMP DP  RH WIND       PRES   REMARKS
OCEAN CITY     LGT RAIN  37  36  96 N6        29.78S FOG
SALISBURY      LGT RAIN  39  37  92 NW6       29.78S FOG
BAY BRIDGE AP*   N/A     43  36  75 CALM      29.78R
CAMBRIDGE*     MOCLDY    43  37  81 CALM      29.77F
EASTON*          N/A     45  41  87 CALM      29.81R

$$

MDZ017>025-280000-
SOUTHERN MARYLAND

CITY           SKY/WX    TMP DP  RH WIND       PRES   REMARKS
PATUXENT RIVER CLOUDY    41  36  82 CALM      29.78S
ST INIGOES     CLOUDY    41  36  82 S3        29.79R
LEONARDTOWN*   CLOUDY    41  36  81 CALM      29.79S

$$

MDZ003>005-280000-
NORTH CENTRAL MARYLAND

CITY           SKY/WX    TMP DP  RH WIND       PRES   REMARKS
FREDERICK*     MOCLDY    48  19  32 NW12      29.81
HAGERSTOWN APT CLOUDY    43  23  45 NW15      29.79R
WESTMINSTER*   CLOUDY    45  25  45 NW8       29.77R

$$

MDZ501>502-280000-
WESTERN MARYLAND

CITY           SKY/WX    TMP DP  RH WIND       PRES   REMARKS
OAKLAND*       CLOUDY    27 N/A N/A NW10G18   29.76R FOG     WCI  17
CUMBERLAND*    CLOUDY    41  25  52 NW7G16    29.87R

$$

VAZ025>031-280000-
SHENANDOAH VALLEY

CITY           SKY/WX    TMP DP  RH WIND       PRES   REMARKS
WINCHESTER*    CLOUDY    45  21  39 NW13      29.80R
FRONT ROYAL*   CLOUDY    43  27  52 NW12G18   29.79R
LURAY*         CLOUDY    46  30  53 NW10      29.78R
NEW MARKET*    MOCLDY    43  25  48 N8        29.79R
STAUNTON*      CLOUDY    46  26  45 N13       29.78R
WAYNESBORO*    CLOUDY    44  29  56 N3        29.75R

$$

WVZ021-048>050-054>055-280000-
EASTERN WEST VIRGINIA PANHANDLE

CITY           SKY/WX    TMP DP  RH WIND       PRES   REMARKS
MARTINSBURG    CLOUDY    45  24  43 NW10      29.80R
PETERSBURG*    CLOUDY    41  22  47 NW9       29.84R

$$

VAZ036>039-050-280000-
CENTRAL FOOTHILLS

CITY           SKY/WX    TMP DP  RH WIND       PRES   REMARKS
CHARLOTTESVILL CLOUDY    46  34  62 E6        29.77R
CULPEPER*      MOCLDY    48  30  49 N5        29.79R
ORANGE*        CLOUDY    46  34  61 N3        29.79R
GORDONSVILLE*  MOCLDY    46  33  61 CALM      29.77R
WARRENTON*     FAIR      48  35  62 N7        29.78R

$$

VAZ055>057-280000-
NORTH AND CENTRAL PIEDMONT

CITY           SKY/WX    TMP DP  RH WIND       PRES   REMARKS
FREDERICKSBRG* MOCLDY    49  32  51 N6        29.78R
STAFFORD*      MOCLDY    46  28  49 N8        29.82R

$$

NCZ024-NYZ072-PAZ021-071-VAZ022-071-280000-
OTHER REGIONAL OBSERVATIONS

CITY           SKY/WX    TMP DP  RH WIND       PRES   REMARKS
NEW YORK CITY  CLOUDY    44  28  53 VRB5      29.76R
PHILADELPHIA   CLOUDY    47  26  44 NW7       29.77R
PITTSBURGH     CLOUDY    29  19  66 NW12      29.91R WCI  19
ROANOKE        CLOUDY    48  24  39 NW16G23   29.78R
RICHMOND       CLOUDY    43  37  79 SE3       29.79S
RALEIGH        LGT RAIN  43  39  86 N6        29.80R

$$

ANZ530>537-280000-
MARINE OBSERVATIONS

STATION/POSITION TIME  TEMP    WIND        PRES
                       AIR SEA DIR/SP/G
                 (UTC) (F)     (DEG/KT/KT) (MB)
THOMAS PT LIGHT  2300                        N/A
BALT KEY BRIDGE  2200   47     310/  8/  9 1007.4S
COVE POINT       2200   39     360/  2/  2 1007.9F
LEWISETTA        2200   40 47              1008.4R
SOLOMONS ISLAND  2200      44                N/A
PINEY POINT      2200          200/  2/  3   N/A

$$



USA.gov is the U.S. government's official web portal to all federal, state and local government web resources and services.